Home > Weather > Greven > Past weeks

Flag for Germany Past Weather in Greven, North Rhine-Westphalia, Germany — Yesterday and Last 2 Weeks

Now
55 °F

Clear.


Feels Like: 55 °F
Forecast: 52 / 72 °F
Wind: 1 mph from Northeast

Location: Muenster / Osnabrueck

Current Time: Aug 30, 2016 at 12:01:34 AM

Latest Report: Aug 29, 2016 at 11:20 PM


Visibility: 10 mi

Pressure: 30.24 "Hg

Humidity: 88%

Dew Point: 52 °F

Location of GrevenLocation

Past Weather in Greven — Graph

°F

Greven Temperature Yesterday

Maximum temperature yesterday: 70 °F (at 1:20 PM)
Minimum temperature yesterday: 57 °F (at 10:50 PM)
Average temperature yesterday: 65 °F

High & Low Weather Summary for the Past Weeks

 TemperatureHumidityPressure
High90 °F (Aug 25, 4:20 PM)100% (Aug 15, 1:50 AM)30.33 "Hg (Aug 15, 1:50 AM)
Low46 °F (Aug 17, 6:50 AM)29% (Aug 25, 5:20 PM)29.77 "Hg (Aug 19, 5:20 PM)
Average67 °F71%30.04 "Hg
* Reported Aug 14 10:20 PM — Aug 29 10:50 PM, Greven, Weather by CustomWeather, © 2016

Note: Actual official high and low records may vary slightly from our data, if they occured in-between our weather recording intervals... More about our weather records

Advertising

Greven Weather History for the Previous 24 Hours

Scroll right to see more
 ConditionsComfort  
Time TempWeatherWind HumidityBarometerVisibility
10:50 PM
Mon, Aug 29
57 °FClear.2 mph82%30.24 "Hg10 mi
10:20 PM59 °FClear.3 mph77%30.21 "Hg10 mi
9:50 PM61 °FClear.7 mph72%30.21 "Hg10 mi
9:20 PM61 °FPassing clouds.5 mph77%30.18 "HgN/A
8:50 PM63 °FScattered clouds.6 mph73%30.18 "HgN/A
8:20 PM64 °FPartly sunny.7 mph68%30.15 "HgN/A
7:50 PM66 °FPartly sunny.9 mph64%30.15 "HgN/A
7:20 PM68 °FScattered clouds.7 mph60%30.15 "HgN/A
6:50 PM68 °FScattered clouds.7 mph60%30.15 "HgN/A
6:20 PM68 °FScattered clouds.8 mph64%30.15 "HgN/A
5:50 PM70 °FScattered clouds.9 mph57%30.12 "HgN/A
5:20 PM68 °FPartly sunny.9 mph64%30.12 "HgN/A
4:50 PM68 °FPartly sunny.9 mph64%30.12 "HgN/A
4:20 PM70 °FPartly sunny.8 mph60%30.12 "HgN/A
3:50 PM70 °FPartly sunny.9 mph60%30.09 "HgN/A
3:20 PM68 °FPartly sunny.8 mph69%30.09 "HgN/A
2:50 PM70 °FPartly sunny.14 mph53%30.09 "HgN/A
2:20 PM70 °FPartly sunny.12 mph60%30.09 "HgN/A
1:50 PM70 °FPartly sunny.10 mph60%30.09 "HgN/A
1:20 PM70 °FPartly sunny.9 mph60%30.07 "HgN/A
12:50 PM68 °FPartly sunny.8 mph64%30.07 "HgN/A
12:20 PM66 °FPartly sunny.10 mph73%30.07 "HgN/A
11:50 AM68 °FBroken clouds.8 mph73%30.07 "HgN/A
11:20 AM66 °FBroken clouds.8 mph78%30.07 "HgN/A
10:50 AM64 °FBroken clouds.8 mph83%30.04 "HgN/A
10:20 AM66 °FBroken clouds.9 mph73%30.04 "HgN/A
9:50 AM66 °FPartly sunny.10 mph78%30.04 "HgN/A
9:20 AM64 °FBroken clouds.12 mph83%30.04 "HgN/A
8:50 AM63 °FPartly sunny.10 mph88%30.01 "HgN/A
8:20 AM63 °FPartly sunny.10 mph88%30.01 "HgN/A
7:50 AM63 °FBroken clouds.10 mph83%30.01 "HgN/A
7:20 AM63 °FPassing clouds.10 mph83%29.98 "HgN/A
6:50 AM63 °FLight rain. Passing clouds.12 mph83%29.98 "HgN/A
6:20 AM64 °FPassing clouds.12 mph78%29.98 "HgN/A
5:50 AM63 °FPartly cloudy.8 mph83%29.98 "HgN/A
5:20 AM63 °FPassing clouds.10 mph83%29.98 "HgN/A
4:50 AM63 °FPassing clouds.9 mph77%29.98 "HgN/A
4:20 AM64 °FPassing clouds.12 mph73%29.95 "HgN/A
3:50 AM63 °FPassing clouds.10 mph77%29.95 "HgN/A
3:20 AM64 °FClear.9 mph73%29.95 "Hg10 mi
2:50 AM63 °FClear.8 mph77%29.98 "Hg10 mi
2:20 AM63 °FPassing clouds.6 mph77%29.98 "HgN/A
1:50 AM64 °FPassing clouds.5 mph73%29.98 "HgN/A
1:20 AM64 °FPassing clouds.7 mph78%29.98 "HgN/A
12:50 AM63 °FPassing clouds.6 mph83%29.98 "HgN/A
12:20 AM61 °FClear.2 mph88%29.98 "Hg10 mi
Weather by CustomWeather, © 2016

See weather overviewHow to use our weather pages